SCP
0 0 0 0 0 0 0 0 0 0 0 0 0 0 1 1 1 1 1 1 1 1 1 1 1 1 2 2 1 1 1 1 1 1 1 1 1 1 1 1 1 1 1 1
0 0 0 0 0 0 0 0 0 0 0 0 0 0 1 1 1 1 1 1 1 1 1 1 1 1 1 1 1 1 1 1 1 1 1 1 1 1 1 1 1 1 1 1
0 0 0 0 0 0 0 0 0 0 0 0 0 1 1 1 1 1 1 1 1 1 1 1 1 1 1 1 1 1 1 1 1 1 1 1 0 0 1 0 0 0 0 0
0 0 0 0 0 0 0 0 0 0 0 0 0 1 1 1 1 1 1 1 1 1 1 1 1 1 1 1 1 1 1 1 1 1 1 0 0 0 0 0 0 0 0 0
0 0 0 0 0 0 0 0 0 0 0 0 0 1 1 1 1 1 1 1 1 1 1 1 1 1 1 1 1 1 1 1 1 1 1 1 1 1 0 0 0 0 0 0
0 0 0 0 0 0 0 0 0 0 0 0 1 1 1 1 1 1 1 1 1 1 1 1 1 1 1 1 1 1 1 1 1 1 1 1 1 0 0 0 0 0 0 0
0 0 0 0 0 0 0 0 0 0 1 1 1 1 1 1 1 1 1 1 1 1 1 1 1 1 1 1 1 1 1 1 1 1 1 0 0 0 0 0 0 0 0 0
0 0 0 0 0 0 0 1 1 1 1 1 1 1 1 1 1 1 1 1 1 1 1 1 1 1 1 1 1 1 1 1 1 1 0 0 0 0 0 0 0 0 0 0
0 0 0 0 0 1 1 1 1 1 1 1 1 1 1 1 1 1 1 1 1 1 1 1 1 1 1 1 1 1 1 1 1 0 0 0 0 0 0 0 0 0 0 0
0 0 0 0 0 1 1 1 1 1 1 1 0 0 1 1 1 1 1 1 1 1 1 1 1 1 1 1 1 1 1 1 0 0 0 0 0 0 0 0 0 0 0 0
0 0 0 0 0 0 0 0 0 0 0 0 0 0 0 0 0 1 1 1 1 1 1 1 1 1 1 1 1 1 0 0 0 0 0 0 0 0 0 0 0 0 0 0
0 0 0 0 0 0 0 0 0 0 0 0 0 0 0 0 0 0 1 1 1 0 0 0 0 0 0 0 0 0 0 0 0 0 0 0 0 0 0 0 0 0 0 0
0 0 0 0 0 0 0 0 0 0 0 0 0 0 0 0 0 0 0 1 0 0 0 0 0 0 0 0 0 0 0 0 0 0 0 0 0 0 0 0 0 0 0 0
0 0 0 0 0 0 0 0 0 0 0 0 0 0 0 0 0 0 0 0 0 0 0 0 0 0 0 0 0 0 0 0 0 0 0 0 0 0 0 0 0 0 0 0
0 0 0 0 0 0 0 0 0 0 0 0 0 0 0 0 0 0 0 0 0 0 0 0 0 0 0 0 0 0 0 0 0 0 0 0 0 0 0 0 0 0 0 0
0 0 0 0 0 0 0 0 0 0 0 0 0 0 0 0 0 0 0 0 0 0 0 0 0 0 0 0 0 0 0 0 0 0 0 0 0 0 0 0 0 0 0 0
0 0 0 0 0 0 0 0 0 0 0 0 0 0 0 0 0 0 0 0 0 0 0 0 0 0 0 0 0 0 0 0 0 0 0 0 0 0 0 0 0 0 0 0
0 0 0 0 0 0 0 0 0 0 0 0 0 0 0 0 0 0 0 0 0 0 0 0 0 0 0 0 0 0 0 0 0 0 0 0 0 0 0 0 0 0 0 0
0 0 0 0 0 0 0 0 0 0 0 0 0 0 0 0 0 0 0 0 0 0 0 0 0 0 0 0 0 0 0 0 0 0 0 0 0 0 0 0 0 0 0 0
0 0 0 0 0 0 0 0 0 0 0 0 0 0 0 0 0 0 0 0 0 0 0 0 0 0 0 0 0 0 0 0 0 0 0 0 0 0 0 0 0 0 0 0
0 0 0 0 0 0 0 0 0 0 0 0 0 0 0 0 0 0 0 0 0 0 0 0 0 0 0 0 0 0 0 0 0 0 0 0 0 0 0 0 0 0 0 0
0 0 0 0 0 0 0 0 0 0 0 0 0 0 0 0 0 0 0 0 0 0 0 0 0 0 0 0 0 0 0 0 0 0 0 0 0 0 0 0 0 0 0 0
0 0 0 0 0 0 0 0 0 0 0 0 0 0 0 0 0 0 0 0 0 0 0 0 0 0 0 0 0 0 0 0 0 0 0 0 0 0 0 0 0 0 0 0
0 0 0 0 0 0 0 0 0 0 0 0 0 0 0 0 0 0 0 0 0 0 0 0 0 -0 0 0 0 0 0 0 0 0 0 0 0 0 0 0 0 0 0 0
0 0 0 0 0 0 0 0 0 0 0 0 0 0 0 0 0 0 0 0 0 0 -0 -0 -0 -0 0 0 0 0 0 0 0 0 0 0 0 0 0 0 0 0 0 0
0 0 0 0 0 0 0 0 0 0 0 0 0 0 0 0 0 0 0 0 0 0 0 0 -0 0 0 0 0 0 0 0 0 0 0 0 0 0 0 0 0 0 0 0
0 0 0 0 0 0 0 0 0 0 0 0 0 0 0 0 0 0 0 0 0 0 0 0 0 0 0 0 0 0 0 0 0 0 0 0 0 0 0 0 0 0 0 0
Wind_Speed
3 4 11 14 15 15 15 13 11 9 9 6 5 5 5 6 6 6 6 5 5 6 6 6 6 5 5 5 5 5 5 5 4 4 4 4 4 4 4 3 3 2 2 2
7 6 9 11 13 14 14 13 11 9 7 2 3 5 6 6 6 6 6 6 6 6 7 6 6 6 6 5 5 5 5 4 4 4 4 4 3 3 3 3 2 2 1 1
9 9 9 12 12 13 12 11 10 10 5 4 4 5 5 5 6 6 6 6 6 6 6 6 6 6 6 6 6 5 5 5 4 4 4 4 4 4 3 3 3 2 2 1
7 9 12 4 4 8 10 9 7 5 3 4 3 4 4 5 6 6 7 7 6 6 6 6 7 7 7 7 6 6 5 4 4 4 4 4 4 4 3 2 2 2 2 2
8 10 7 6 5 6 8 8 6 5 3 5 5 6 5 4 5 6 7 7 6 6 7 7 7 7 7 7 6 6 5 4 4 4 4 4 4 4 3 3 3 2 2 2
8 10 9 6 6 3 6 8 4 4 5 6 7 6 6 6 7 8 7 7 7 7 7 7 7 7 7 6 6 5 5 4 4 4 4 4 4 4 3 3 3 3 3 3
10 9 4 5 5 6 9 3 3 2 4 6 3 2 7 8 7 8 8 8 8 8 7 6 6 7 7 7 6 5 5 5 5 5 5 4 4 4 4 4 4 3 4 5
9 10 5 5 5 4 4 5 2 2 3 4 5 7 8 9 9 9 9 8 8 8 8 7 6 7 8 7 6 6 6 6 6 6 5 5 5 4 4 4 4 4 5 5
3 0 6 3 2 3 2 2 2 2 4 5 7 7 9 9 8 9 9 8 8 9 8 7 6 7 8 7 6 7 7 7 7 7 6 6 5 5 4 4 4 4 4 4
3 3 2 2 2 1 1 2 2 2 4 5 7 8 9 8 8 8 8 8 8 9 9 8 7 8 8 7 7 8 9 8 7 8 8 8 6 6 5 4 4 4 4 4
4 3 3 3 2 2 2 2 3 3 4 6 8 9 9 8 8 8 8 8 8 8 9 9 8 8 7 7 8 9 9 8 8 8 9 9 10 9 8 8 7 5 5 5
1 2 1 2 2 2 2 2 3 4 5 6 8 9 9 8 9 9 9 8 8 10 10 9 9 8 8 7 7 9 8 7 6 6 7 8 9 11 16 13 15 15 13 9
2 1 1 1 1 1 2 3 4 5 6 7 8 8 10 9 9 9 10 10 10 10 10 10 10 9 8 7 8 8 8 7 6 6 7 7 7 8 9 11 14 14 13 12
2 2 2 1 1 2 4 5 6 7 8 8 8 9 10 10 10 10 10 10 11 11 11 11 11 10 8 8 8 9 9 8 7 6 6 6 6 6 6 7 7 8 9 9
2 2 2 3 3 4 5 6 7 8 9 9 9 9 10 11 11 11 11 11 11 11 11 11 11 9 8 8 8 9 7 6 6 6 6 6 6 6 7 7 7 6 6 7
2 3 4 4 5 6 6 7 8 8 9 9 9 10 10 11 12 12 11 11 11 11 10 10 10 9 8 9 9 8 8 9 7 6 6 6 6 6 6 6 6 5 5 5
4 5 6 6 7 6 6 7 8 8 9 10 11 11 12 12 12 12 11 11 11 11 10 10 9 8 8 8 8 7 7 7 7 6 6 6 6 6 6 5 5 6 6 7
4 4 5 6 7 7 7 8 8 9 10 11 12 12 12 12 12 12 12 11 11 11 10 9 8 8 8 7 6 6 6 6 6 6 6 6 6 6 6 6 6 6 6 6
5 5 5 6 7 8 8 9 9 10 11 12 12 12 12 12 11 11 11 11 11 10 8 8 8 8 9 8 6 5 6 7 7 6 6 6 6 6 6 6 6 6 5 5
6 6 7 8 9 9 9 9 10 11 11 12 13 13 13 12 11 11 11 10 7 7 8 8 8 8 8 7 4 6 7 7 7 7 6 6 6 6 6 6 6 6 5 5
8 9 10 9 9 10 10 10 11 12 12 13 13 13 13 11 11 10 10 9 8 7 8 7 6 7 7 6 5 6 6 6 6 6 6 6 6 6 6 6 6 5 5 5
9 10 11 11 12 11 10 10 11 13 13 13 14 14 13 12 11 11 10 8 8 6 6 7 7 8 6 5 6 7 6 6 6 6 6 5 5 5 5 5 5 5 5 5
9 10 11 12 12 12 12 11 12 12 13 13 13 12 12 10 8 9 9 7 8 6 6 8 9 7 3 5 7 7 7 6 6 6 5 5 5 5 5 5 5 5 4 4
10 11 11 11 12 13 13 12 12 11 12 12 11 11 10 9 8 9 9 9 8 8 9 9 7 5 2 6 6 6 6 6 6 5 5 5 5 5 5 5 4 4 4 4
10 11 11 12 11 10 11 12 13 13 12 10 11 10 8 8 9 9 10 11 10 9 10 8 6 3 5 7 6 6 6 6 5 5 5 5 5 5 5 4 4 4 3 3
9 8 8 9 9 8 8 9 9 9 9 10 9 8 9 9 11 10 9 11 11 8 8 7 6 4 5 6 6 7 7 6 5 5 5 4 5 5 4 4 4 3 3 3
10 9 8 8 8 7 8 8 9 9 9 9 10 9 9 9 9 10 10 9 8 7 7 6 6 6 6 6 6 6 6 5 5 5 5 4 4 4 4 3 2 2 2 2
Wind_Direction
230 162 185 195 199 203 216 229 235 226 232 202 187 180 163 158 154 144 135 131 131 136 133 135 137 139 142 144 143 148 153 158 163 166 169 171 174 179 180 192 205 196 188 216
196 187 195 201 201 204 214 227 237 238 230 194 153 156 161 164 162 152 140 131 124 126 124 124 128 132 132 132 132 135 138 143 146 155 153 153 165 171 166 170 175 159 152 174
198 183 196 209 205 205 207 217 229 231 222 165 171 171 167 161 159 151 140 130 127 123 119 119 123 127 129 130 130 133 135 136 137 144 147 155 159 149 142 143 137 122 106 94
198 186 214 166 176 214 214 216 229 239 195 172 165 148 146 156 157 149 138 131 126 120 115 114 115 121 126 129 130 130 129 128 127 134 138 142 134 131 134 130 117 106 101 92
208 205 201 167 177 203 211 212 216 219 173 138 137 143 137 136 138 135 129 123 122 121 118 116 116 122 126 125 125 126 128 129 128 133 136 137 126 128 132 124 112 108 97 76
212 216 211 166 141 177 222 208 176 196 176 158 180 196 141 124 123 121 117 115 117 117 113 112 116 122 124 118 115 118 122 127 128 124 123 121 121 123 122 124 122 115 93 75
213 216 193 103 133 186 214 138 91 162 172 176 193 41 109 125 122 121 119 115 117 116 110 108 115 119 115 110 109 111 111 108 106 105 109 108 106 108 116 120 115 105 91 77
215 219 183 114 178 202 53 52 69 114 133 131 99 103 118 121 124 125 121 118 118 113 107 105 112 117 111 104 107 106 102 98 93 90 91 97 100 100 102 110 109 101 90 76
233 111 73 100 80 52 39 38 56 96 111 116 121 119 119 119 121 120 119 117 115 113 108 101 101 106 106 104 106 105 101 95 92 88 81 82 87 90 92 91 89 85 83 76
195 150 118 107 101 77 54 55 64 105 119 127 125 124 123 120 118 118 117 116 117 116 110 101 95 94 97 100 103 102 96 92 90 88 82 74 67 64 64 62 76 81 79 76
203 170 161 138 97 65 67 79 96 106 118 128 128 126 124 121 120 119 116 114 112 110 106 102 99 96 96 100 105 102 98 95 90 84 82 75 65 52 55 49 39 53 69 73
180 136 208 116 76 55 74 88 101 115 121 125 126 126 123 119 119 119 117 114 110 107 105 102 99 93 89 93 102 106 104 99 95 94 92 93 93 80 60 63 62 59 54 63
307 340 62 105 66 51 94 100 109 119 123 120 119 121 119 119 121 120 118 116 113 110 107 104 100 94 92 95 98 98 101 100 99 98 100 101 102 103 99 83 73 66 63 65
209 190 167 147 111 115 119 116 114 113 115 118 120 121 122 121 119 117 115 114 112 110 107 103 97 92 93 97 99 99 99 97 99 100 101 99 97 98 100 104 101 90 79 78
195 184 162 138 131 129 129 128 122 118 118 119 121 123 124 121 115 111 110 111 110 108 103 100 96 93 96 100 100 102 102 101 98 98 100 101 103 102 99 96 96 98 102 100
186 167 163 160 152 148 147 143 134 128 126 125 123 121 120 117 115 112 111 114 114 108 104 102 100 101 102 101 101 97 91 89 96 104 104 103 100 98 95 94 90 86 80 76
191 179 174 167 161 157 151 143 136 133 131 128 126 125 121 118 115 112 111 109 106 104 103 102 102 103 104 105 105 105 105 103 102 100 95 94 93 92 90 88 84 80 72 53
205 196 184 171 160 149 141 137 135 132 130 128 127 124 122 120 117 114 112 111 107 102 98 101 104 107 104 101 101 107 110 109 104 99 98 92 90 91 91 89 87 87 91 90
180 170 164 156 148 141 136 133 130 128 127 129 125 121 117 114 114 114 114 112 109 105 100 100 104 108 103 98 101 109 108 106 101 98 98 101 98 92 89 88 85 80 77 75
156 148 147 143 138 132 127 127 125 124 126 126 121 119 116 116 118 115 110 101 94 100 111 110 113 103 102 99 97 103 104 106 108 107 106 102 96 92 89 87 85 79 75 72
141 138 136 132 128 125 127 129 127 125 124 123 122 121 119 118 118 116 113 105 100 103 110 115 110 105 103 104 109 102 103 103 102 102 102 100 97 95 92 89 85 80 77 76
126 127 125 123 121 117 116 120 122 123 122 122 122 121 120 119 116 108 99 101 110 112 117 110 100 90 94 113 107 104 103 101 100 101 102 101 99 97 93 91 87 82 78 75
114 116 117 118 117 114 113 115 118 120 121 121 122 123 120 116 116 115 111 109 112 108 102 92 91 93 99 110 99 99 97 95 95 96 97 96 95 95 93 90 85 83 81 75
110 111 112 114 116 116 115 115 114 114 115 116 117 118 118 116 108 102 104 104 99 105 99 96 98 97 106 101 98 98 97 96 96 98 99 97 95 93 89 86 84 81 78 70
111 113 116 119 118 116 117 118 115 115 115 112 113 114 112 109 110 111 113 113 115 113 110 109 110 114 108 97 101 101 98 91 91 94 96 93 92 92 93 92 88 82 75 68
113 115 115 116 115 120 123 122 120 121 120 118 116 114 112 113 116 118 118 119 117 117 117 120 123 127 104 101 100 100 104 110 111 102 94 94 94 94 93 90 90 81 75 65
112 111 111 110 111 114 116 117 119 121 122 121 119 119 119 119 120 120 121 123 124 121 115 116 115 109 103 101 100 99 98 99 97 97 99 95 91 89 91 90 79 78 68 67